Change the Weather History Date:

Sunday, February 2, 2014

  Actual Average (KMSY) Record (KMSY)
Temperature  
Mean Temperature 58 °F -  
Max Temperature 69 °F 63 °F 81 °F (1969)
Min Temperature 46 °F 46 °F 26 °F (1985)
Degree Days  
Heating Degree Days 6    
Growing Degree Days 8 (Base 50)    
Moisture  
Dew Point 61 °F    
Average Humidity 91    
Maximum Humidity 94    
Minimum Humidity 83    
Precipitation  
Precipitation 0.26 in - - ()
Sea Level Pressure  
Sea Level Pressure 29.98 in    
Wind  
Wind Speed 7 mph (SSE)    
Max Wind Speed 17 mph    
Max Gust Speed 24 mph    
Visibility 4 miles    
Events Fog , Rain , Thunderstorm    
Averages and records for this station are not official NWS values.
T = Trace of Precipitation, MM = Missing Value Source: NWS Daily Summary

Daily Weather History Graph

Daily Weather History Graph

Search for Another Location

Airport or City:

Trip Planner

Search our weather history database for the weather conditions in past years. The results will help you decide how hot, cold, wet, or windy it might be!

Date:

Astronomy

Feb. 02, 2014 Rise Set
Actual Time 6:52 AM CST 5:39 PM CST
Civil Twilight 6:27 AM CST 6:04 PM CST
Nautical Twilight 5:58 AM CST 6:32 PM CST
Astronomical Twilight 5:29 AM CST 7:01 PM CST
Moon 8:35 AM CST 9:04 PM CST
Length of Visible Light 11h 37m
Length of Day
10h 46m
Waxing Crescent, 11% of the Moon is Illuminated
Feb 2
Waxing Crescent
Feb 6
First Quarter
Feb 14
Full
Feb 22
Last Quarter
Mar 1
New

Hourly Weather History & Observations

Time (CST) Temp. Windchill Dew Point Humidity Pressure Visibility Wind Dir Wind Speed Gust Speed Precip Events Conditions
12:15 AM 59.0 °F - 57.2 °F 94% 30.04 in 0.8 mi SE 6.9 mph - N/A   Overcast
12:35 AM 59.0 °F - 57.2 °F 94% 30.03 in 0.8 mi SSE 4.6 mph - N/A   Overcast
12:55 AM 59.0 °F - 57.2 °F 94% 30.03 in 0.8 mi SE 4.6 mph - N/A   Overcast
1:15 AM 59.0 °F - 57.2 °F 94% 30.04 in 0.8 mi SE 5.8 mph - N/A   Overcast
1:35 AM 59.0 °F - 57.2 °F 94% 30.03 in 0.8 mi SE 6.9 mph - N/A   Overcast
1:55 AM 59.0 °F - 57.2 °F 94% 30.03 in 0.8 mi SE 3.5 mph - N/A   Overcast
2:15 AM 59.0 °F - 57.2 °F 94% 30.03 in 0.8 mi SE 5.8 mph - N/A   Overcast
2:35 AM 59.0 °F - 57.2 °F 94% 30.02 in 0.8 mi SE 4.6 mph - N/A   Overcast
2:55 AM 60.8 °F - 57.2 °F 88% 30.02 in 0.8 mi SE 4.6 mph - N/A   Overcast
3:15 AM 60.8 °F - 57.2 °F 88% 30.02 in 0.5 mi SE 3.5 mph - N/A Fog Fog
3:35 AM 60.8 °F - 57.2 °F 88% 30.02 in 0.5 mi SE 6.9 mph - N/A Fog Fog
3:55 AM 60.8 °F - 57.2 °F 88% 30.03 in 0.5 mi SE 4.6 mph - N/A Fog Fog
4:15 AM 60.8 °F - 59.0 °F 94% 30.03 in 1.0 mi SSE 3.5 mph - N/A   Overcast
4:35 AM 60.8 °F - 59.0 °F 94% 30.02 in 0.8 mi SE 3.5 mph - N/A   Overcast
4:55 AM 60.8 °F - 59.0 °F 94% 30.02 in 1.0 mi SE 3.5 mph - N/A Rain Rain
5:15 AM 60.8 °F - 59.0 °F 94% 30.02 in 1.5 mi Calm Calm - 0.01 in Rain Light Rain
5:35 AM 62.6 °F - 59.0 °F 88% 30.02 in 3.0 mi SE 6.9 mph - 0.04 in   Overcast
5:55 AM 62.6 °F - 60.8 °F 94% 30.02 in 2.0 mi SE 6.9 mph - 0.05 in   Overcast
6:15 AM 62.6 °F - 60.8 °F 94% 30.02 in 1.0 mi SE 8.1 mph - 0.02 in   Overcast
6:35 AM 62.6 °F - 60.8 °F 94% 30.03 in 1.0 mi SE 11.5 mph 16.1 mph 0.03 in   Overcast
6:55 AM 62.6 °F - 60.8 °F 94% 30.03 in 1.0 mi SE 10.4 mph - 0.04 in   Overcast
7:15 AM 62.6 °F - 60.8 °F 94% 30.03 in 0.5 mi SE 10.4 mph - N/A Fog Fog
7:35 AM 62.6 °F - 60.8 °F 94% 30.03 in 0.8 mi SE 5.8 mph - N/A   Overcast
7:55 AM 62.6 °F - 59.0 °F 88% 30.03 in 0.5 mi SE 6.9 mph - N/A Fog Fog
8:15 AM 62.6 °F - 59.0 °F 88% 30.03 in 0.5 mi SE 9.2 mph - N/A Fog Fog
8:35 AM 62.6 °F - 59.0 °F 88% 30.03 in 0.5 mi SE 10.4 mph - 0.01 in Rain Rain
8:55 AM 62.6 °F - 60.8 °F 94% 30.03 in 5.0 mi SE 6.9 mph - 0.01 in Rain Light Rain
9:15 AM 62.6 °F - 60.8 °F 94% 30.03 in 10.0 mi SSE 8.1 mph - 0.02 in   Overcast
9:35 AM 64.4 °F - 62.6 °F 94% 30.02 in 7.0 mi SE 8.1 mph - 0.03 in   Overcast
9:55 AM 64.4 °F - 62.6 °F 94% 30.02 in 2.5 mi SE 10.4 mph - 0.04 in   Overcast
10:15 AM 64.4 °F - 62.6 °F 94% 30.02 in 1.5 mi SE 10.4 mph - N/A   Overcast
10:35 AM 64.4 °F - 62.6 °F 94% 30.01 in 2.5 mi SE 13.8 mph - 0.01 in   Overcast
10:55 AM 64.4 °F - 62.6 °F 94% 30.00 in 4.0 mi SE 10.4 mph - 0.02 in Rain Light Rain
11:15 AM 64.4 °F - 62.6 °F 94% 30.00 in 1.8 mi SE 13.8 mph 19.6 mph 0.01 in   Overcast
11:35 AM 64.4 °F - 62.6 °F 94% 29.99 in 1.2 mi SE 11.5 mph 17.3 mph 0.02 in   Overcast
11:55 AM 64.4 °F - 62.6 °F 94% 29.97 in 0.8 mi SE 11.5 mph - 0.03 in   Overcast
12:15 PM 64.4 °F - 62.6 °F 94% 29.96 in 0.5 mi SSE 8.1 mph - 0.01 in Fog Fog
12:35 PM 64.4 °F - 62.6 °F 94% 29.94 in 1.0 mi SE 10.4 mph 17.3 mph 0.02 in Rain Light Rain
12:55 PM 64.4 °F - 62.6 °F 94% 29.93 in 1.2 mi SE 11.5 mph - 0.02 in   Overcast
1:15 PM 66.2 °F - 62.6 °F 88% 29.93 in 0.8 mi SSE 11.5 mph - N/A   Overcast
1:35 PM 66.2 °F - 62.6 °F 88% 29.93 in 1.0 mi SSE 6.9 mph - N/A   Overcast
1:55 PM 66.2 °F - 62.6 °F 88% 29.93 in 0.5 mi SSE 6.9 mph - N/A Fog Fog
2:15 PM 66.2 °F - 64.4 °F 94% 29.92 in 0.5 mi SSE 6.9 mph - N/A Fog Fog
2:35 PM 66.2 °F - 64.4 °F 94% 29.92 in 0.5 mi SE 8.1 mph - N/A Fog Fog
2:55 PM 68.0 °F - 64.4 °F 88% 29.91 in 1.0 mi SSE 8.1 mph - N/A Thunderstorm Overcast
3:15 PM 68.0 °F - 64.4 °F 88% 29.92 in 3.0 mi SSE 8.1 mph - N/A Thunderstorm Overcast
3:35 PM 68.0 °F - 66.2 °F 94% 29.92 in 3.0 mi SSE 6.9 mph - N/A   Light Drizzle
3:55 PM 68.0 °F - 66.2 °F 94% 29.91 in 5.0 mi SSE 8.1 mph - N/A   Overcast
4:15 PM 69.8 °F - 66.2 °F 88% 29.91 in 7.0 mi SSE 10.4 mph - N/A   Overcast
4:35 PM 69.8 °F - 66.2 °F 88% 29.91 in 7.0 mi SSE 8.1 mph - N/A   Overcast
4:55 PM 69.8 °F - 66.2 °F 88% 29.91 in 7.0 mi SSE 9.2 mph - N/A   Overcast
5:15 PM 69.8 °F - 66.2 °F 88% 29.92 in 7.0 mi SSE 8.1 mph - N/A   Overcast
5:35 PM 69.8 °F - 66.2 °F 88% 29.92 in 7.0 mi South 9.2 mph - N/A   Overcast
5:55 PM 69.8 °F - 66.2 °F 88% 29.92 in 7.0 mi South 10.4 mph - N/A   Overcast
6:15 PM 69.8 °F - 66.2 °F 88% 29.92 in 5.0 mi South 6.9 mph - 0.01 in Rain Heavy Rain
6:35 PM 69.8 °F - 66.2 °F 88% 29.92 in 7.0 mi SSW 6.9 mph - 0.01 in   Overcast
6:55 PM 69.8 °F - 66.2 °F 88% 29.93 in 7.0 mi South 6.9 mph - 0.02 in Rain Light Rain
7:15 PM 69.8 °F - 66.2 °F 88% 29.93 in 7.0 mi South 6.9 mph - 0.01 in   Overcast
7:35 PM 69.8 °F - 66.2 °F 88% 29.93 in 7.0 mi South 6.9 mph - 0.01 in   Overcast
7:55 PM 69.8 °F - 66.2 °F 88% 29.93 in 7.0 mi South 8.1 mph - 0.01 in   Overcast
8:15 PM 69.8 °F - 66.2 °F 88% 29.93 in 7.0 mi South 8.1 mph - 0.01 in   Overcast
8:35 PM 69.8 °F - 66.2 °F 88% 29.93 in 7.0 mi South 9.2 mph - 0.01 in   Overcast
8:55 PM 69.8 °F - 66.2 °F 88% 29.93 in 7.0 mi South 9.2 mph - 0.01 in   Overcast
9:15 PM 69.8 °F - 66.2 °F 88% 29.94 in 7.0 mi South 9.2 mph 16.1 mph N/A   Overcast
9:35 PM 69.8 °F - 66.2 °F 88% 29.95 in 7.0 mi South 9.2 mph - N/A   Overcast
9:55 PM 69.8 °F - 66.2 °F 88% 29.95 in 7.0 mi South 10.4 mph - N/A   Overcast
10:15 PM 69.8 °F - 66.2 °F 88% 29.94 in 7.0 mi South 9.2 mph - N/A   Overcast
10:35 PM 64.4 °F - 59.0 °F 83% 29.96 in 10.0 mi NW 17.3 mph 24.2 mph N/A   Overcast
10:55 PM 53.6 °F - 50.0 °F 88% 30.00 in 7.0 mi NW 12.7 mph 20.7 mph N/A Rain Rain
11:15 PM 50.0 °F - 46.4 °F 87% 30.02 in 7.0 mi NW 9.2 mph 18.4 mph N/A Rain Rain
11:35 PM 48.2 °F - 44.6 °F 87% 30.03 in 7.0 mi NNW 6.9 mph - 0.01 in   Light Drizzle
11:55 PM 46.4 °F 41.5 °F 44.6 °F 93% 30.04 in 10.0 mi NW 10.4 mph - 0.01 in   Overcast